Flag for Germany Weather for the Past 2 Weeks in Weiden in der Oberpfalz, Bavaria, Germany

Now
32 °F

Ice fog.


Feels Like: 32 °F
Forecast: 27 / 40 °F
Wind: No wind

Location: Grafenwoehr

Current Time: Feb 12, 2016 at 2:53:18 AM

Latest Report: Feb 12, 2016 at 1:58 AM


Visibility: 6 mi

Pressure: 29.73 "Hg

Humidity: 100%

Dew point: 32 °F

Location of Weiden in der OberpfalzLocation

Historic Weather in Weiden in der Oberpfalz — Graph

°F

Weiden in der Oberpfalz Temperature Yesterday

Maximum temperature yesterday: 39 °F (at 11:58 AM)
Minimum temperature yesterday: 32 °F (at 10:58 PM)
Average temperature yesterday: 35 °F

High & Low Weather Summary for the Past Weeks

 TemperatureHumidityPressure
High52 °F (Jan 28, 8:58 AM)100% (Jan 28, 10:58 PM)30.42 "Hg (Jan 28, 10:58 PM)
Low27 °F (Feb 7, 3:58 AM)51% (Jan 29, 1:58 PM)29.18 "Hg (Feb 9, 7:58 PM)
Average39 °F85%29.95 "Hg
* Reported Jan 28 12:58 AM — Feb 12 12:58 AM, Weiden in der Oberpfalz, Weather by CustomWeather, © 2016

Note: Actual official high and low records may vary slightly from our data, if they occured in-between our weather recording intervals... More about our weather records

Advertising

Weiden in der Oberpfalz Weather History for the Previous 24 Hours

 ConditionsComfort  
Time TempWeatherWind HumidityBarometerVisibility
12:58 AM
Fri, Feb 12
32 °FIce fog.No wind98%29.74 "Hg5 mi
11:58 PM
Thu, Feb 11
32 °FIce fog.No wind100%29.74 "Hg4 mi
10:58 PM32 °FIce fog.No wind97%29.75 "Hg5 mi
9:58 PM32 °FIce fog.No wind93%29.75 "Hg5 mi
8:58 PM34 °FOvercast.No wind93%29.75 "HgN/A
7:58 PM34 °FOvercast.No wind94%29.75 "HgN/A
6:58 PM34 °FMostly cloudy.5 mph93%29.75 "HgN/A
6:01 PM36 °FLight rain. Overcast.8 mph87%29.69 "HgN/A
4:58 PM36 °FOvercast.5 mph90%29.74 "HgN/A
4:04 PM37 °FLight rain. Mostly cloudy.6 mph81%29.68 "HgN/A
3:58 PM37 °FCloudy.7 mph81%29.74 "HgN/A
2:58 PM36 °FCloudy.6 mph93%29.73 "HgN/A
2:00 PM37 °FMore clouds than sun.9 mph81%29.68 "HgN/A
1:58 PM38 °FMostly cloudy.8 mph78%29.74 "HgN/A
1:02 PM37 °FCloudy.6 mph81%29.68 "HgN/A
12:58 PM38 °FMore clouds than sun.7 mph81%29.73 "HgN/A
11:58 AM39 °FMostly cloudy.8 mph75%29.74 "HgN/A
10:58 AM37 °FOvercast.6 mph85%29.74 "HgN/A
10:01 AM36 °FMore clouds than sun.7 mph87%29.67 "HgN/A
9:58 AM36 °FMostly cloudy.5 mph89%29.73 "HgN/A
8:59 AM36 °FLight rain. Overcast.7 mph87%29.66 "HgN/A
8:58 AM35 °FOvercast.3 mph91%29.72 "HgN/A
7:58 AM36 °FOvercast.5 mph87%29.70 "HgN/A
7:03 AM34 °FMostly cloudy.6 mph93%29.63 "HgN/A
6:58 AM35 °FMostly cloudy.7 mph91%29.69 "HgN/A
6:00 AM34 °FLight rain. Low clouds.7 mph93%29.61 "HgN/A
5:58 AM35 °FLow clouds.6 mph92%29.67 "HgN/A
4:58 AM34 °FLow clouds.3 mph93%29.66 "HgN/A
3:59 AM34 °FLow clouds.8 mph93%29.57 "HgN/A
2:58 AM34 °FLight rain. Mostly cloudy.9 mph92%29.61 "HgN/A
Weather by CustomWeather, © 2016

See weather overviewHow to use our weather pages